Theta_e
305 306 307 308 308 309 309 311 316 322 326 326 326 327 326 328 329 329 331 330 328 327 325 325 324 322 321 321 321 320 318 317 317 316 317 317 318 318 319 321 321 320 320
302 303 303 304 304 305 307 309 311 316 321 325 326 327 327 328 329 330 329 329 328 327 326 325 324 323 321 322 321 320 318 318 317 315 314 310 313 315 318 319 319 319 320
299 300 300 300 302 302 304 305 308 310 315 322 325 326 326 324 326 327 327 328 329 328 327 326 325 324 322 321 321 320 319 317 317 318 316 309 306 309 311 314 317 318 318
298 298 299 299 300 300 303 306 307 307 310 320 323 324 323 322 324 326 327 327 327 328 328 326 324 324 322 321 321 321 320 319 317 313 317 319 315 309 307 308 311 315 316
297 297 297 298 298 299 299 302 302 302 309 317 322 323 323 324 325 325 325 325 325 326 327 327 325 323 323 322 322 320 320 320 318 318 315 313 314 315 310 308 311 312 313
296 296 297 296 295 296 297 300 298 297 300 301 308 317 321 322 323 323 323 324 324 324 324 325 325 325 324 324 324 322 322 320 319 319 319 314 312 312 311 310 310 309 313
294 293 292 292 293 293 294 296 296 294 296 297 299 301 303 310 320 322 323 322 322 323 323 323 323 323 324 324 324 323 320 320 318 318 317 318 316 316 314 312 311 309 311
292 291 291 290 290 290 291 292 294 292 293 294 296 298 300 302 304 306 312 322 323 323 325 324 322 322 323 324 323 322 322 320 319 318 318 318 317 316 316 313 311 308 310
291 290 290 290 289 288 289 289 290 291 290 291 293 295 296 297 299 300 301 303 305 308 319 325 323 322 323 323 323 322 321 320 319 318 317 317 318 318 316 315 314 310 306
288 288 288 288 288 287 287 288 288 288 288 288 290 292 293 295 296 295 295 297 299 301 304 308 314 323 323 323 322 321 322 320 320 319 318 316 317 317 317 315 314 313 310
286 285 286 286 286 285 284 284 285 285 287 286 288 290 290 292 291 290 291 293 294 295 296 299 303 309 315 323 322 322 321 320 319 320 318 317 317 316 317 317 315 313 312
284 283 283 284 283 282 282 281 283 282 284 283 286 287 287 289 287 286 288 291 290 291 292 295 298 301 304 310 316 321 320 320 319 319 318 317 318 316 317 316 315 314 314
281 281 281 280 281 280 280 279 281 280 280 281 283 283 285 284 283 284 285 287 288 288 290 291 293 295 298 301 306 311 316 320 320 319 319 318 318 316 317 316 315 315 314
280 279 279 279 279 278 278 278 278 278 278 279 280 280 283 281 281 282 283 284 285 285 287 289 290 292 294 296 301 302 303 306 313 320 320 319 318 317 317 316 316 315 314
278 277 277 277 277 276 276 277 276 276 277 277 277 278 279 278 279 279 281 282 282 284 285 286 288 290 292 294 294 294 296 298 301 306 315 320 315 306 311 317 317 315 314
276 276 276 276 275 275 275 275 274 274 276 275 276 276 276 276 276 277 278 279 280 281 282 283 285 287 290 291 291 292 293 293 295 298 304 311 304 305 300 303 306 314 315
275 275 275 274 274 274 274 272 273 274 274 274 274 274 274 274 275 275 276 276 276 278 279 281 283 285 287 289 290 290 291 291 293 295 298 301 306 304 314 308 301 302 304
274 274 273 272 273 273 272 272 273 273 273 273 272 273 273 272 273 274 274 274 276 276 277 279 281 283 286 288 290 289 290 291 292 294 295 297 299 304 305 309 312 313 309
273 273 272 272 272 271 271 272 272 272 271 271 271 271 271 272 272 272 273 274 275 277 278 280 280 282 284 287 289 289 290 289 290 292 293 295 295 296 297 300 302 307 309
272 271 271 271 271 270 271 271 271 270 269 270 270 271 271 271 271 272 273 274 276 277 278 278 280 281 283 285 287 287 287 287 287 288 290 290 293 294 295 297 298 299 302
271 270 270 270 269 270 270 270 269 268 269 269 269 269 270 270 272 272 274 274 275 275 276 276 278 279 280 281 284 284 284 284 285 287 287 289 291 292 294 295 295 294 297
269 269 268 268 268 269 268 268 267 268 267 267 267 267 269 270 272 271 273 273 273 273 274 274 275 277 278 279 280 281 281 282 281 282 286 288 290 291 292 292 293 293 294
269 268 267 267 267 266 267 265 265 265 265 264 264 266 268 270 270 270 271 271 272 272 272 273 273 273 275 276 278 278 280 280 279 280 283 285 288 291 291 292 292 291 292
266 266 265 265 264 264 265 264 264 263 261 261 264 266 266 267 269 269 270 270 270 270 272 272 271 272 272 274 275 276 276 277 278 279 280 282 286 289 290 289 290 291 292
265 265 264 264 262 262 262 262 261 261 260 262 263 263 265 265 266 267 268 269 271 272 271 271 271 271 269 273 276 276 275 274 275 274 276 279 283 287 288 289 290 291 291
263 262 262 261 260 259 259 259 258 258 258 259 260 261 263 263 264 264 264 268 270 271 272 273 272 272 273 276 276 276 276 274 275 269 268 268 270 271 272 275 287 289 289
Wind_Speed
11 9 10 11 10 9 8 10 9 12 7 7 7 8 11 10 9 11 15 14 12 14 14 11 11 11 12 12 12 11 13 9 7 6 9 9 12 13 12 10 11 12 12
9 11 11 9 10 10 10 10 10 11 8 8 6 6 5 8 9 10 12 13 14 16 14 13 12 12 10 13 13 13 10 8 8 7 5 7 5 8 11 12 13 16 11
6 7 10 11 11 13 14 11 10 10 9 10 7 5 5 2 4 9 8 11 13 13 14 14 13 12 12 12 13 14 14 11 7 14 8 3 8 2 2 10 10 11 10
5 5 9 11 14 14 12 13 12 10 9 7 7 9 8 9 8 8 6 8 12 14 13 13 13 13 10 12 12 11 14 13 12 4 12 15 7 6 7 2 4 8 11
6 9 10 10 11 12 12 12 14 15 16 9 5 5 7 7 6 5 6 8 8 12 13 13 13 13 11 12 13 12 14 12 12 11 7 11 11 12 11 15 10 5 8
6 6 7 9 11 11 13 12 14 15 16 15 16 12 7 7 5 6 5 5 5 6 11 13 13 13 13 14 13 15 15 13 13 12 12 11 7 10 11 13 16 15 12
6 6 8 10 11 13 14 12 15 16 16 15 15 15 14 14 10 7 6 6 6 6 9 12 12 12 14 15 14 14 14 14 13 15 12 12 13 12 11 12 12 13 8
5 5 6 7 9 11 12 13 14 15 16 14 14 13 14 9 9 12 11 8 6 6 9 10 11 14 14 15 14 12 12 14 14 18 15 13 13 12 13 13 12 13 12
5 5 5 6 8 10 11 12 13 13 15 15 12 12 12 13 12 13 12 10 12 11 13 10 11 12 14 15 15 12 14 14 14 16 16 16 14 13 12 13 13 14 14
5 4 6 7 8 9 10 10 12 13 14 14 13 11 12 12 12 11 13 14 13 15 15 14 14 11 13 14 15 13 14 14 13 12 17 16 14 14 13 13 13 14 17
4 4 5 5 7 8 11 11 12 14 14 14 13 13 12 12 12 12 13 14 14 15 15 15 14 14 15 12 14 15 16 16 16 16 16 19 18 13 13 13 13 15 15
5 4 5 6 7 9 10 12 12 13 13 13 13 13 13 14 14 14 15 15 15 14 15 16 15 13 13 14 16 15 14 16 17 17 17 19 14 20 18 14 18 17 17
5 4 4 6 7 9 10 11 11 13 13 13 13 13 13 15 16 16 16 15 16 16 15 15 15 16 15 14 14 15 16 17 18 18 19 19 19 19 15 17 17 15 13
5 3 4 6 7 8 9 10 11 13 14 13 14 14 15 16 15 15 16 15 16 16 16 16 15 15 15 15 13 15 17 17 17 19 19 21 20 22 20 18 19 16 16
5 3 4 4 6 8 9 9 11 11 12 12 12 13 14 14 14 14 14 14 14 14 15 17 14 15 14 10 17 17 18 19 19 19 20 18 20 24 21 14 17 16 15
5 3 4 6 7 8 8 10 10 11 11 11 12 13 13 14 14 14 15 16 15 15 15 15 16 16 11 23 23 21 17 19 19 18 19 19 17 18 23 25 30 26 17
5 4 5 5 6 7 8 9 9 9 10 10 12 13 13 13 13 14 13 14 14 15 15 16 15 16 16 23 24 25 17 19 18 19 18 18 15 15 15 19 23 29 31
5 4 4 4 5 6 7 8 7 8 9 10 12 12 14 14 14 13 14 14 13 14 14 14 16 17 15 25 24 25 19 19 21 20 20 21 22 20 18 19 20 19 20
6 5 4 4 3 6 7 7 7 7 9 11 12 13 14 14 14 14 14 13 13 13 13 13 17 19 18 27 26 23 17 19 22 20 21 19 21 24 24 21 22 23 24
6 6 4 5 6 7 8 7 8 9 11 12 13 13 13 14 14 14 14 13 12 13 12 14 14 18 17 25 29 27 16 18 18 22 21 22 20 23 22 16 19 22 24
8 6 5 6 7 7 7 7 8 10 11 12 12 12 12 13 13 14 12 13 13 14 15 16 14 14 16 18 27 31 18 15 17 18 18 15 23 25 25 25 19 22 20
7 6 6 6 7 7 7 7 8 10 11 11 11 11 11 10 11 12 12 13 12 12 13 13 12 10 13 21 23 31 33 31 19 19 16 17 28 31 32 28 30 31 26
6 6 6 6 6 7 7 7 9 11 11 11 10 10 11 11 12 12 12 10 11 10 11 11 11 12 11 12 26 31 33 31 22 19 28 40 38 35 27 26 26 22 14
7 5 5 5 4 5 6 6 8 10 9 9 10 10 10 11 10 9 9 8 9 10 10 11 12 12 12 12 14 14 15 23 21 26 21 28 32 33 27 19 17 12 12
5 5 3 3 3 4 4 4 7 9 9 9 9 10 8 9 10 9 8 9 10 12 11 9 11 12 13 14 26 25 18 17 21 23 17 16 14 13 12 10 11 11 11
5 4 3 2 2 3 3 4 5 6 7 9 8 8 8 8 9 9 10 13 16 19 18 21 18 10 23 31 31 32 33 31 33 14 14 15 15 15 15 17 14 9 10
Wind_Direction
290 301 303 302 300 283 273 270 268 253 228 219 228 232 234 232 228 230 231 225 214 208 208 216 213 201 211 217 213 220 234 233 225 254 262 260 248 243 240 236 240 233 226
306 320 332 343 338 314 306 288 272 267 239 230 231 224 218 227 230 230 227 219 210 210 212 217 217 210 213 217 216 212 220 231 199 218 254 283 258 237 232 229 229 230 217
311 336 344 349 353 357 347 326 302 280 267 245 239 231 232 233 213 227 227 226 224 221 217 216 218 214 212 219 217 213 217 232 198 212 216 237 243 335 200 232 242 238 227
1 355 359 5 5 358 354 0 359 344 307 254 231 229 230 236 239 239 223 225 217 224 223 224 222 222 215 224 221 214 214 215 225 191 219 238 254 268 288 215 244 239 237
41 13 10 14 8 3 1 8 14 21 12 358 260 237 242 250 260 248 239 227 222 220 225 226 225 224 224 224 226 222 218 217 225 219 201 222 233 242 249 273 252 230 227
47 32 12 13 14 9 9 11 13 20 19 23 25 15 325 299 280 271 257 247 231 222 222 226 226 229 229 230 228 227 227 222 225 229 221 213 205 215 230 243 258 254 247
69 47 28 20 14 11 9 9 13 18 13 22 26 21 15 9 343 305 276 257 249 232 228 224 229 229 231 232 233 231 226 223 225 227 227 227 229 233 233 240 252 259 253
81 59 37 24 22 15 13 11 13 12 11 13 20 20 20 14 8 355 347 328 287 263 250 233 232 232 232 232 233 236 231 228 226 229 229 236 233 225 222 236 244 256 254
92 72 43 34 30 22 16 16 13 14 11 6 3 18 20 16 9 2 356 349 347 343 330 278 247 240 239 236 236 236 236 229 230 232 230 231 235 231 227 227 222 244 256
94 67 44 34 31 28 17 18 19 15 11 4 1 8 16 11 9 7 354 354 342 343 339 333 329 286 250 244 240 240 240 236 234 232 235 232 235 234 229 226 226 223 240
107 73 53 40 31 21 21 12 16 9 9 1 357 359 4 12 8 359 354 347 341 341 336 330 325 321 315 281 246 244 245 242 240 236 234 236 233 233 234 236 230 233 229
113 77 49 36 33 22 21 12 16 7 6 350 353 360 355 4 4 355 352 342 338 341 336 325 324 323 322 320 313 273 255 256 255 248 242 242 238 235 234 233 235 234 230
104 83 62 38 30 23 14 7 14 3 359 352 354 354 356 2 355 346 351 340 333 337 328 326 326 321 320 318 315 308 310 277 255 250 249 249 242 243 237 237 238 236 234
123 83 54 36 30 20 11 2 6 360 353 352 356 357 357 353 344 339 337 330 337 327 326 319 323 321 320 320 320 336 324 310 308 274 252 249 246 247 244 239 243 236 231
136 102 66 34 23 14 8 7 360 356 352 351 352 352 345 339 334 334 330 328 323 326 319 315 328 323 322 327 337 327 322 316 307 297 292 261 251 248 245 246 247 241 237
141 113 68 30 21 8 5 1 352 351 349 347 349 344 342 335 333 332 330 330 330 323 323 327 331 321 322 324 327 319 315 311 304 299 294 291 274 254 247 240 241 242 246
142 105 75 33 15 6 3 354 347 344 348 347 344 341 338 334 333 327 322 321 324 326 329 325 319 318 320 320 320 316 306 305 300 296 297 292 285 284 272 251 243 245 243
125 93 65 42 21 10 359 349 354 353 353 347 344 342 339 334 330 329 329 327 328 327 324 323 321 317 315 320 318 313 309 310 305 302 299 296 296 291 290 287 274 259 242
119 103 73 59 36 21 4 352 1 357 355 354 345 343 338 334 334 333 333 332 327 327 325 324 323 323 322 325 320 321 315 310 306 304 301 296 294 296 297 293 289 279 266
110 99 72 72 48 22 5 2 4 3 358 352 341 339 338 335 332 331 334 325 326 326 329 326 326 323 320 334 331 330 317 305 306 305 303 294 289 296 295 293 294 275 273
115 95 81 69 42 18 2 10 5 2 348 341 335 334 334 333 335 334 327 331 333 333 336 334 331 326 325 324 331 335 335 323 312 301 299 299 299 298 291 287 285 283 298
110 86 82 66 46 23 11 7 4 347 340 336 330 329 332 337 337 332 331 335 334 332 329 326 326 328 333 331 333 336 329 324 317 306 303 296 293 290 289 289 282 283 288
104 78 73 65 49 25 18 1 349 341 337 329 327 333 333 334 334 335 332 334 336 332 328 332 333 335 333 333 335 332 330 326 318 306 300 299 293 283 282 278 279 278 275
103 87 78 70 49 21 13 357 340 337 327 327 334 335 334 330 332 330 332 328 328 326 332 335 336 331 337 333 336 333 329 327 323 319 305 290 279 275 270 277 271 261 260
104 100 97 85 44 4 357 351 348 339 336 336 333 335 330 330 327 329 326 325 321 323 329 332 336 331 338 336 338 340 338 338 333 333 330 336 326 301 280 269 267 266 267
120 112 107 84 23 349 342 346 339 340 336 336 337 331 328 332 329 326 320 319 321 329 334 339 340 334 336 337 339 342 344 347 350 344 344 342 340 338 331 334 306 283 273